Location: St. Louis
(38.6270°N, 90.1994°W)
Time: 23:37:30
(UTC-06:00)

Transit 4A - Pass Details

Date: 03 December 2021
Orbit: 864 x 981 km, 66.8° (Epoch: 21 January)

Event Time Altitude Azimuth Distance (km) Brightness Sun altitude
Rises 17:19:46 0° 149° (SSE) 3,438 10.8 -7.9°
Reaches altitude 10° 17:24:33 10° 113° (ESE) 2,526 9.8 -8.8°
Maximum altitude 17:25:50 11° 100° (E) 2,480 9.6 -9.1°
Drops below altitude 10° 17:27:08 10° 87° (E) 2,543 9.6 -9.3°
Enters shadow 17:27:16 10° 86° (E) 2,554 9.6 -9.3°
Sets 17:32:00 0° 52° (NE) 3,519 - -10.2°
